Location: Dammartin
(48.9032°N, 1.6195°E)
Time: 17:58:41
(UTC+00:00)

BlueWalker 3 - Pass Details

Date: 17 April 2024
Orbit: 482 x 494 km, 53.2° (Epoch: 22 May)

Event Time Altitude Azimuth Distance (km) Brightness Sun altitude
Exits shadow 02:26:55 19° 134° (SE) 1,223 3.8 -21.5°
Drops below altitude 10° 02:28:08 10° 130° (SE) 1,694 4.6 -21.4°
Sets 02:30:19 0° 127° (SE) 2,572 5.6 -21.2°
